| time (UTC) | temp F | wind direction | speed MPH | gust MPH | rain 1hr in | rain 24hr in | rain mn in | humidity % | barometer mb |
| 20260502233506 | 47 | 300 | 3.0 | 9.0 | 0.00 | 0.00 | 0.00 | 56 | 922.8 |
| 20260502233006 | 47 | 253 | 3.0 | 8.0 | 0.00 | 0.00 | 0.00 | 56 | 922.7 |
| 20260502231505 | 48 | 38 | 1.0 | 6.0 | 0.00 | 0.00 | 0.00 | 54 | 922.6 |
| 20260502231005 | 48 | 301 | 2.0 | 7.0 | 0.00 | 0.00 | 0.00 | 54 | 922.6 |
| 20260502230506 | 48 | 223 | 4.0 | 8.0 | 0.00 | 0.00 | 0.00 | 54 | 922.7 |
| 20260502224505 | 47 | 258 | 3.0 | 7.0 | 0.00 | 0.00 | 0.00 | 54 | 922.6 |
| 20260502224006 | 47 | 187 | 4.0 | 8.0 | 0.00 | 0.00 | 0.00 | 54 | 922.5 |
| 20260502223505 | 48 | 274 | 2.0 | 10.0 | 0.00 | 0.00 | 0.00 | 54 | 922.5 |
| 20260502223006 | 48 | 245 | 3.0 | 12.0 | 0.00 | 0.00 | 0.00 | 54 | 922.5 |
| 20260502221506 | 48 | 257 | 3.0 | 12.0 | 0.00 | 0.00 | 0.00 | 53 | 922.4 |
| 20260502221006 | 48 | 250 | 2.0 | 6.0 | 0.00 | 0.00 | 0.00 | 55 | 922.4 |
| 20260502220005 | 48 | 162 | 3.0 | 12.0 | 0.00 | 0.00 | 0.00 | 55 | 922.4 |
| 20260502214505 | 49 | 264 | 1.0 | 6.0 | 0.00 | 0.00 | 0.00 | 54 | 922.1 |
| 20260502213505 | 49 | 267 | 3.0 | 6.0 | 0.00 | 0.00 | 0.00 | 53 | 922.1 |
| 20260502213005 | 48 | 288 | 4.0 | 7.0 | 0.00 | 0.00 | 0.00 | 53 | 922.0 |
| 20260502211505 | 48 | 293 | 3.0 | 9.0 | 0.00 | 0.00 | 0.00 | 54 | 922.0 |
| 20260502211005 | 48 | 299 | 3.0 | 9.0 | 0.00 | 0.00 | 0.00 | 54 | 922.0 |
| 20260502210005 | 49 | 254 | 3.0 | 10.0 | 0.00 | 0.00 | 0.00 | 54 | 921.9 |
| 20260502204505 | 49 | 213 | 3.0 | 7.0 | 0.00 | 0.00 | 0.00 | 52 | 922.0 |
| 20260502204005 | 49 | 3 | 2.0 | 8.0 | 0.00 | 0.00 | 0.00 | 54 | 922.0 |
| 20260502203506 | 49 | 226 | 3.0 | 6.0 | 0.00 | 0.00 | 0.00 | 53 | 922.0 |
| 20260502201505 | 49 | 302 | 4.0 | 8.0 | 0.00 | 0.00 | 0.00 | 51 | 922.2 |
| 20260502201005 | 49 | 259 | 2.0 | 8.0 | 0.00 | 0.00 | 0.00 | 52 | 922.1 |
| 20260502200505 | 49 | 240 | 3.0 | 8.0 | 0.00 | 0.00 | 0.00 | 53 | 922.3 |
| 20260502200005 | 49 | 233 | 5.0 | 14.0 | 0.00 | 0.00 | 0.00 | 52 | 922.2 |
| 20260502194005 | 49 | 266 | 4.0 | 9.0 | 0.00 | 0.00 | 0.00 | 51 | 922.3 |
| 20260502193505 | 49 | 50 | 3.0 | 8.0 | 0.00 | 0.00 | 0.00 | 52 | 922.4 |
| 20260502193005 | 49 | 311 | 4.0 | 10.0 | 0.00 | 0.00 | 0.00 | 52 | 922.4 |
| 20260502191505 | 50 | 255 | 3.0 | 10.0 | 0.00 | 0.00 | 0.00 | 50 | 922.4 |
| 20260502191005 | 51 | 314 | 5.0 | 13.0 | 0.00 | 0.00 | 0.00 | 50 | 922.4 |
| 20260502190505 | 51 | 330 | 5.0 | 9.0 | 0.00 | 0.00 | 0.00 | 49 | 922.4 |
| 20260502190005 | 51 | 265 | 3.0 | 9.0 | 0.00 | 0.00 | 0.00 | 48 | 922.3 |
| 20260502184005 | 51 | 297 | 3.0 | 9.0 | 0.00 | 0.00 | 0.00 | 49 | 922.4 |
| 20260502183505 | 52 | 236 | 3.0 | 10.0 | 0.00 | 0.00 | 0.00 | 47 | 922.5 |
| 20260502183005 | 52 | 294 | 4.0 | 10.0 | 0.00 | 0.00 | 0.00 | 49 | 922.5 |
| 20260502181504 | 51 | 294 | 4.0 | 8.0 | 0.00 | 0.00 | 0.00 | 50 | 922.5 |
| 20260502181005 | 51 | 289 | 2.0 | 9.0 | 0.00 | 0.00 | 0.00 | 51 | 922.6 |
| 20260502180504 | 51 | 277 | 4.0 | 7.0 | 0.00 | 0.00 | 0.00 | 50 | 922.6 |
| 20260502170505 | 51 | 271 | 5.0 | 12.0 | 0.00 | 0.00 | 0.00 | 49 | 922.8 |
| 20260502164004 | 52 | 267 | 2.0 | 7.0 | 0.00 | 0.00 | 0.00 | 50 | 922.8 |
| 20260502163004 | 52 | 266 | 6.0 | 10.0 | 0.00 | 0.00 | 0.00 | 48 | 922.9 |
| 20260502161004 | 51 | 28 | 4.0 | 8.0 | 0.00 | 0.00 | 0.00 | 50 | 923.1 |
| 20260502160505 | 51 | 340 | 5.0 | 10.0 | 0.00 | 0.00 | 0.00 | 50 | 923.0 |
| 20260502151504 | 50 | 294 | 2.0 | 7.0 | 0.00 | 0.00 | 0.00 | 52 | 923.4 |
| 20260502151004 | 50 | 292 | 5.0 | 9.0 | 0.00 | 0.00 | 0.00 | 52 | 923.3 |
| 20260502130505 | 42 | 94 | 1.0 | 3.0 | 0.00 | 0.00 | 0.00 | 70 | 923.4 |
| 20260502123505 | 41 | 170 | 1.0 | 5.0 | 0.00 | 0.00 | 0.00 | 75 | 923.4 |
| 20260502123005 | 40 | 100 | 1.0 | 5.0 | 0.00 | 0.00 | 0.00 | 76 | 923.4 |
| 20260502121505 | 39 | 144 | 1.0 | 3.0 | 0.00 | 0.00 | 0.00 | 81 | 923.4 |
| 20260502120505 | 38 | 158 | 0.0 | 2.0 | 0.00 | 0.00 | 0.00 | 90 | 923.4 |
| 20260502114005 | 35 | 110 | 0.0 | 1.0 | 0.00 | 0.00 | 0.00 | 94 | 923.3 |
| 20260502113005 | 34 | 345 | 0.0 | 2.0 | 0.00 | 0.00 | 0.00 | 94 | 923.3 |
| 20260502111505 | 33 | 36 | 0.0 | 1.0 | 0.00 | 0.00 | 0.00 | 93 | 923.2 |
| 20260502111005 | 33 | 323 | 0.0 | 1.0 | 0.00 | 0.00 | 0.00 | 92 | 923.1 |
| 20260502110004 | 33 | 39 | 0.0 | 1.0 | 0.00 | 0.00 | 0.00 | 92 | 923.1 |
| 20260502104505 | 34 | 37 | 0.0 | 2.0 | 0.00 | 0.00 | 0.00 | 91 | 923.0 |
| 20260502104005 | 34 | 337 | 0.0 | 2.0 | 0.00 | 0.00 | 0.00 | 91 | 923.0 |
| 20260502103005 | 35 | 32 | 1.0 | 2.0 | 0.00 | 0.00 | 0.00 | 89 | 922.7 |
| 20260502101504 | 36 | 35 | 1.0 | 2.0 | 0.00 | 0.00 | 0.00 | 89 | 922.8 |
| 20260502101004 | 36 | 356 | 1.0 | 3.0 | 0.00 | 0.00 | 0.00 | 88 | 923.0 |
| 20260502100505 | 36 | 325 | 2.0 | 3.0 | 0.00 | 0.00 | 0.00 | 90 | 923.1 |
| 20260502091505 | 40 | 26 | 1.0 | 2.0 | 0.00 | 0.00 | 0.00 | 81 | 923.3 |
| 20260502091005 | 40 | 24 | 0.0 | 2.0 | 0.00 | 0.00 | 0.00 | 79 | 923.4 |
| 20260502090505 | 41 | 64 | 0.0 | 2.0 | 0.00 | 0.00 | 0.00 | 79 | 923.4 |
| 20260502071504 | 43 | 246 | 1.0 | 5.0 | 0.00 | 0.00 | 0.00 | 73 | 923.0 |
| 20260502071004 | 44 | 245 | 0.0 | 2.0 | 0.00 | 0.00 | 0.00 | 73 | 923.1 |
| 20260502070504 | 44 | 262 | 1.0 | 2.0 | 0.00 | 0.00 | 0.00 | 72 | 923.1 |
| 20260502070004 | 44 | 340 | 0.0 | 3.0 | 0.00 | 0.00 | 0.00 | 73 | 923.0 |
| 20260502064504 | 44 | 336 | 1.0 | 3.0 | 0.00 | 0.00 | 0.00 | 72 | 923.2 |
| 20260502063504 | 44 | 310 | 0.0 | 3.0 | 0.00 | 0.00 | 0.00 | 72 | 923.2 |
| 20260502063004 | 44 | 294 | 1.0 | 3.0 | 0.00 | 0.00 | 0.00 | 71 | 923.4 |
| 20260502061504 | 45 | 290 | 2.0 | 5.0 | 0.00 | 0.00 | 0.00 | 71 | 923.4 |
| 20260502060505 | 45 | 284 | 1.0 | 5.0 | 0.00 | 0.00 | 0.00 | 75 | 923.4 |
| 20260502054005 | 46 | 37 | 2.0 | 5.0 | 0.00 | 0.00 | 0.00 | 78 | 923.5 |
| 20260502053005 | 46 | 340 | 2.0 | 5.0 | 0.00 | 0.00 | 0.00 | 78 | 923.4 |
| 20260502051505 | 46 | 282 | 3.0 | 6.0 | 0.00 | 0.00 | 0.00 | 76 | 923.3 |
| 20260502051005 | 46 | 272 | 1.0 | 6.0 | 0.00 | 0.00 | 0.00 | 76 | 923.3 |
| 20260502050005 | 46 | 304 | 2.0 | 6.0 | 0.00 | 0.00 | 0.00 | 75 | 923.3 |
| 20260502044005 | 47 | 310 | 1.0 | 3.0 | 0.00 | 0.00 | 0.00 | 74 | 923.3 |
| 20260502043505 | 47 | 266 | 0.0 | 2.0 | 0.00 | 0.00 | 0.00 | 75 | 923.4 |
| 20260502043005 | 47 | 167 | 0.0 | 7.0 | 0.00 | 0.00 | 0.00 | 74 | 923.4 |
| 20260502041505 | 47 | 216 | 2.0 | 6.0 | 0.00 | 0.00 | 0.00 | 73 | 923.5 |
| 20260502041005 | 47 | 286 | 3.0 | 7.0 | 0.00 | 0.00 | 0.00 | 72 | 923.5 |
| 20260502040506 | 47 | 260 | 2.0 | 6.0 | 0.00 | 0.00 | 0.00 | 73 | 923.4 |
| 20260502040005 | 47 | 91 | 2.0 | 6.0 | 0.00 | 0.00 | 0.00 | 74 | 923.4 |
| 20260502034505 | 48 | 256 | 3.0 | 8.0 | 0.00 | 0.00 | 0.00 | 72 | 923.4 |
| 20260502034005 | 48 | 283 | 3.0 | 6.0 | 0.00 | 0.00 | 0.00 | 72 | 923.4 |
| 20260502033505 | 48 | 264 | 1.0 | 2.0 | 0.00 | 0.00 | 0.00 | 72 | 923.3 |
| 20260502033005 | 48 | 261 | 2.0 | 7.0 | 0.00 | 0.00 | 0.00 | 72 | 923.3 |
| 20260502031505 | 49 | 285 | 2.0 | 5.0 | 0.00 | 0.00 | 0.00 | 71 | 923.5 |
| 20260502031006 | 49 | 270 | 1.0 | 5.0 | 0.00 | 0.00 | 0.00 | 70 | 923.5 |
| 20260502030505 | 49 | 226 | 2.0 | 5.0 | 0.00 | 0.00 | 0.00 | 70 | 923.5 |
| 20260502023506 | 50 | 170 | 3.0 | 6.0 | 0.00 | 0.00 | 0.00 | 70 | 923.2 |
| 20260502023007 | 50 | 223 | 2.0 | 7.0 | 0.00 | 0.00 | 0.00 | 71 | 923.2 |
| 20260502021506 | 50 | 253 | 2.0 | 7.0 | 0.00 | 0.00 | 0.00 | 70 | 923.0 |
| 20260502021005 | 50 | 265 | 1.0 | 8.0 | 0.00 | 0.00 | 0.00 | 69 | 923.0 |
| 20260502020005 | 50 | 218 | 3.0 | 7.0 | 0.00 | 0.00 | 0.00 | 71 | 922.9 |
| 20260502014505 | 50 | 209 | 1.0 | 5.0 | 0.00 | 0.00 | 0.00 | 71 | 922.5 |
| 20260502014005 | 51 | 251 | 2.0 | 6.0 | 0.00 | 0.00 | 0.00 | 71 | 922.3 |
| 20260502013506 | 51 | 299 | 2.0 | 7.0 | 0.00 | 0.00 | 0.00 | 71 | 922.3 |
| 20260502013005 | 51 | 260 | 3.0 | 9.0 | 0.00 | 0.00 | 0.00 | 72 | 922.2 |
| 20260502011505 | 51 | 253 | 3.0 | 9.0 | 0.00 | 0.00 | 0.00 | 72 | 922.2 |
| 20260502011006 | 51 | 275 | 3.0 | 8.0 | 0.00 | 0.00 | 0.00 | 70 | 922.1 |
| 20260502010505 | 51 | 270 | 3.0 | 6.0 | 0.00 | 0.00 | 0.00 | 70 | 922.1 |
| 20260502010005 | 52 | 264 | 3.0 | 7.0 | 0.00 | 0.00 | 0.00 | 69 | 922.1 |
| 20260502004505 | 53 | 306 | 2.0 | 6.0 | 0.00 | 0.00 | 0.00 | 65 | 921.7 |
| 20260502003505 | 54 | 267 | 2.0 | 7.0 | 0.00 | 0.00 | 0.00 | 63 | 921.4 |
| 20260502003007 | 55 | 253 | 2.0 | 9.0 | 0.00 | 0.00 | 0.00 | 61 | 921.2 |
| 20260502001505 | 57 | 225 | 2.0 | 7.0 | 0.00 | 0.00 | 0.00 | 55 | 920.8 |
| 20260502001005 | 57 | 306 | 3.0 | 8.0 | 0.00 | 0.00 | 0.00 | 54 | 920.5 |
| 20260502000505 | 58 | 237 | 3.0 | 6.0 | 0.00 | 0.00 | 0.00 | 52 | 920.5 |
| 20260502000005 | 58 | 229 | 2.0 | 7.0 | 0.00 | 0.00 | 0.00 | 51 | 920.4 |
| 20260501234505 | 59 | 257 | 2.0 | 6.0 | 0.00 | 0.00 | 0.00 | 47 | 920.1 |
| 20260501234005 | 59 | 270 | 3.0 | 7.0 | 0.00 | 0.00 | 0.00 | 47 | 920.0 |